User: anonymous   Login
Location: La Tine
(46.4708°N, 7.0525°E)
Time: 02:38:24
(UTC+00:00)
Language:

SJ-11-01 - Orbit

View from above orbital plane
View from above orbital plane
View from above satellite
View from above satellite

Ground track
Ground track

The orbit data is extracted from the following two-line orbital elements,

1 36088U 09061A   20329.76604250  .00000066  00000-0  23028-4 0  9998
2 36088  97.9762 356.8637 0010209 296.3996  63.6145 14.60183947588000
Epoch (UTC): 24 November 2020 18:23:06
Eccentricity: 0.0010209
inclination: 97.9762°
perigee height: 685 km
apogee height: 700 km
right ascension of ascending node: 356.8637°
argument of perigee: 296.3996°
revolutions per day: 14.60183947
mean anomaly at epoch: 63.6145°
orbit number at epoch: 58800

The dashed part of the orbit path shows where the satellite is in the earth's shadow,  

DLR